Regional Weather Roundup
Issued by NWS

Home | Current Version | Previous Version | Text Only | Print | Product List | Glossary Off
Versions: 1 2 3 4 5 6 7 8 9 10 11 12 13 14 15 16 17 18 19 20 21 22 23 24 25 26 27 28 29 30 31 32 33 34 35 36 37 38 39 40 41 42 43 44 45 46 47 48 49 50

884
ASUS45 KCYS 221710
RWRWY

WYOMING REGIONAL WEATHER ROUNDUP
NATIONAL WEATHER SERVICE CHEYENNE WY
1000 AM MST WED FEB 22 2017

NOTE:  "FAIR" INDICATES FEW OR NO CLOUDS BELOW 12,000 FEET
WITH NO SIGNIFICANT WEATHER AND/OR OBSTRUCTIONS TO VISIBILITY.

WYZ001-221800-
YELLOWSTONE NATIONAL PARK

CITY           SKY/WX    TMP DP  RH WIND       PRES   REMARKS
LK YELLOWSTONE   N/A     21  16  81 VRB6      29.89S WCI  13
W YELLOWSTONE  NOT AVBL

$$
WYZ002>013-054>058-071-098>099-221800-
NORTHERN WYOMING

CITY           SKY/WX    TMP DP  RH WIND       PRES   REMARKS
JACKSON        SUNNY     28  19  69 S12       29.93S WCI  18
CODY           FAIR      39  15  37 W17G24    29.85S WCI  30
GREYBULL       PTSUNNY   38  28  67 E5        29.86  WCI  34
WORLAND        FAIR      38  28  67 CALM      29.86S
SHERIDAN       FAIR      40  28  62 NW21G28   29.85S WCI  30
BUFFALO        FAIR      39  23  52 N17G31    29.84R WCI  30
GILLETTE       FAIR      41  25  53 NW21      29.84R
HULETT         CLOUDY    41  27  56 W14G21    29.83R
NEWCASTLE      FAIR      41  27  56 NW15      29.84S

$$
WYZ014>020-022>026-101>103-221800-
CENTRAL WYOMING

CITY           SKY/WX    TMP DP  RH WIND       PRES   REMARKS
BIG PINEY      FAIR      20  15  81 NE3       29.95R
PINEDALE       FAIR      23  19  86 W3        29.95S
DUBOIS         FAIR      27  10  50 W21       29.87F WCI  13
LANDER         NOT AVBL
RIVERTON       FAIR      36  19  50 NW21G29   29.87S WCI  25
CASPER         FAIR      37  21  52 SW10      29.88S WCI  30
DOUGLAS        FAIR      41  21  44 W16       29.85F

$$
WYZ021-027>030-104>119-221800-
SOUTHERN WYOMING

CITY           SKY/WX    TMP DP  RH WIND       PRES   REMARKS
EVANSTON       CLOUDY    25  22  88 SW5       29.93S WCI  19
KEMMERER         N/A     30  21  69 NW5       29.92F WCI  25
FORT BRIDGER   CLOUDY    28  26  91 CALM      29.96S
ROCK SPRINGS   CLOUDY    28  23  81 S5        29.95S WCI  23
DIXON          LGT SNOW  30  28  89 CALM      29.99F
RAWLINS        PTSUNNY   29  22  75 SW20      29.93F WCI  16
SARATOGA       LGT SNOW  28  28 100 SE5       29.96F WCI  23
LARAMIE        CLOUDY    30  26  85 S8        29.90F WCI  22
CHEYENNE       PTSUNNY   40  23  50 NW18G26   29.90F WCI  31
TORRINGTON     FAIR      49  22  34 W29G35    29.83F
PINE BLUFFS    PTSUNNY   46  21  36 NW22G31   29.88F

$$




USA.gov is the U.S. government's official web portal to all federal, state and local government web resources and services.